Date String (YYYY-MM-DD hh:mm:ss) UTC,Instrument flags,absolute air pressure of the measurement (hPa),sample flow rate (lpm),inlet stack bypass flow (lpm),air temperature of the measurement (°C),ambient temperature measured by the external sensor (°C),aerosol sample conditioner tube jacket temperature (°C),OPC LED temperature (°C),internal box temperature (°C),relative humidity of the measurement (%),span deviation,mass concentration of particles derived from Lorenz-Mie calculation of OPC scattering (μg/m³),mass concentration of particles derived from Lorenz-Mie calculation of OPC scattering (μg/m³),mass concentration of particles derived from Lorenz-Mie calculation of OPC scattering (μg/m³)
DateTimeUTC,F1_M11,P_M11,Q1_M11,Q2_M11,T1_M11,T2_M11,T3_M11,T4_M11,T5_M11,U1_M11,ZSPAN_M11,X2_M11,X0_M11,X1_M11
2023-06-13 03:00:00,SystemResetWarning,0830.7,4.99,000.00,030.1,028.5,000.0,038.6,031.6,27.0,0000.0,0002.84,0007.55,0001.91
2023-06-13 03:01:00,SystemResetWarning,0830.7,5.00,000.00,030.1,028.5,000.0,038.6,031.6,27.0,0000.0,0002.83,0007.50,0001.89
2023-06-13 03:02:00,SystemResetWarning,0830.7,5.01,000.00,030.1,028.5,000.0,038.6,031.6,27.0,0000.0,0002.87,0007.55,0001.88
2023-06-13 03:03:00,SystemResetWarning,0830.7,4.99,000.00,030.1,028.5,000.0,038.6,031.7,27.0,0000.0,0002.86,0007.59,0001.87
2023-06-13 03:04:00,SystemResetWarning,0830.7,4.99,000.00,030.1,028.5,000.0,038.6,031.7,27.0,0000.0,0002.84,0007.57,0001.86
2023-06-13 03:05:00,SystemResetWarning,0830.7,5.00,000.00,030.1,028.5,000.0,038.7,031.6,27.0,0000.0,0002.88,0007.58,0001.88
2023-06-13 03:06:00,SystemResetWarning,0830.7,5.00,000.00,030.1,028.5,000.0,038.6,031.7,27.1,0000.0,0002.91,0007.54,0001.89
2023-06-13 03:07:00,SystemResetWarning,0830.7,5.01,000.00,030.1,028.5,000.0,038.7,031.7,27.0,0000.0,0002.89,0007.44,0001.89
2023-06-13 03:08:00,SystemResetWarning,0830.7,5.01,000.00,030.1,028.5,000.0,038.7,031.7,27.1,0000.0,0002.92,0007.21,0001.90
2023-06-13 03:09:00,SystemResetWarning,0830.7,4.97,000.00,030.1,028.5,000.0,038.7,031.7,27.1,0000.0,0002.94,0005.25,0001.90
2023-06-13 03:10:00,SystemResetWarning,0830.7,5.01,000.00,030.1,028.5,000.0,038.7,031.7,27.1,0000.0,0002.98,0005.29,0001.92
2023-06-13 03:11:00,SystemResetWarning,0830.7,5.01,000.00,030.1,028.5,000.0,038.7,031.6,27.1,0000.0,0002.98,0005.33,0001.96
2023-06-13 03:12:00,SystemResetWarning,0830.8,4.99,000.00,030.1,028.5,000.0,038.7,031.6,27.1,0000.0,0003.05,0005.60,0001.99
2023-06-13 03:13:00,SystemResetWarning,0830.8,5.00,000.00,030.1,028.5,000.0,038.7,031.6,27.1,0000.0,0003.09,0005.83,0002.01
2023-06-13 03:14:00,SystemResetWarning,0830.8,5.00,000.00,030.2,028.5,000.0,038.7,031.7,27.0,0000.0,0003.09,0005.71,0002.03
2023-06-13 03:15:00,SystemResetWarning,0830.8,5.00,000.00,030.2,028.5,000.0,038.7,031.7,27.0,0000.0,0003.12,0005.82,0002.03
2023-06-13 03:16:00,SystemResetWarning,0830.8,5.00,000.00,030.1,028.5,000.0,038.7,031.7,27.0,0000.0,0003.11,0005.77,0002.02
2023-06-13 03:17:00,SystemResetWarning,0830.8,4.99,000.00,030.1,028.5,000.0,038.7,031.7,26.9,0000.0,0003.07,0005.65,0002.02
2023-06-13 03:18:00,SystemResetWarning,0830.7,5.01,000.00,030.1,028.5,000.0,038.7,031.7,26.8,0000.0,0003.08,0005.68,0002.03
2023-06-13 03:19:00,SystemResetWarning,0830.7,5.00,000.00,030.1,028.5,000.0,038.7,031.7,26.8,0000.0,0003.06,0005.59,0002.04
2023-06-13 03:20:00,SystemResetWarning,0830.8,4.99,000.00,030.1,028.5,000.0,038.7,031.7,26.8,0000.0,0003.01,0005.41,0002.05
2023-06-13 03:21:00,SystemResetWarning,0830.8,5.00,000.00,030.1,028.5,000.0,038.7,031.7,26.8,0000.0,0002.93,0005.26,0002.03
2023-06-13 03:22:00,SystemResetWarning,0830.8,5.00,000.00,030.1,028.5,000.0,038.7,031.7,26.7,0000.0,0002.89,0005.08,0002.00
2023-06-13 03:23:00,SystemResetWarning,0830.9,5.01,000.00,030.1,028.5,000.0,038.7,031.7,26.6,0000.0,0002.84,0004.91,0001.98
2023-06-13 03:24:00,SystemResetWarning,0830.9,5.01,000.00,030.1,028.5,000.0,038.7,031.7,26.6,0000.0,0002.84,0004.73,0001.96
2023-06-13 03:25:00,SystemResetWarning,0830.9,5.00,000.00,030.1,028.5,000.0,038.7,031.7,26.6,0000.0,0002.83,0004.68,0001.96
2023-06-13 03:26:00,SystemResetWarning,0830.9,4.99,000.00,030.1,028.5,000.0,038.7,031.7,26.6,0000.0,0002.81,0004.65,0001.94
2023-06-13 03:27:00,SystemResetWarning,0830.9,4.99,000.00,030.1,028.5,000.0,038.7,031.7,26.6,0000.0,0002.81,0004.72,0001.94
2023-06-13 03:28:00,SystemResetWarning,0831.0,5.00,000.00,030.1,028.5,000.0,038.7,031.7,26.6,0000.0,0002.84,0004.90,0001.93
2023-06-13 03:29:00,SystemResetWarning,0831.1,5.00,000.00,030.1,028.5,000.0,038.7,031.6,26.7,0000.0,0002.83,0004.99,0001.91
2023-06-13 03:30:00,SystemResetWarning,0831.1,5.01,000.00,030.1,028.5,000.0,038.7,031.6,26.7,0000.0,0002.83,0005.05,0001.91
2023-06-13 03:31:00,SystemResetWarning,0831.1,5.00,000.00,030.1,028.5,000.0,038.7,031.7,26.7,0000.0,0002.84,0005.09,0001.89
2023-06-13 03:32:00,SystemResetWarning,0831.2,4.98,000.00,030.1,028.5,000.0,038.7,031.7,26.6,0000.0,0002.83,0005.31,0001.89
2023-06-13 03:33:00,SystemResetWarning,0831.1,5.01,000.00,030.1,028.5,000.0,038.7,031.7,26.7,0000.0,0002.86,0006.54,0001.88
2023-06-13 03:34:00,SystemResetWarning,0831.2,5.01,000.00,030.1,028.5,000.0,038.7,031.7,26.4,0000.0,0002.83,0006.60,0001.88
2023-06-13 03:35:00,SystemResetWarning,0831.2,5.00,000.00,030.1,028.5,000.0,038.7,031.7,26.4,0000.0,0002.72,0006.49,0001.86
2023-06-13 03:36:00,SystemResetWarning,0831.1,4.99,000.00,030.1,028.5,000.0,038.7,031.7,26.3,0000.0,0002.68,0006.44,0001.84
2023-06-13 03:37:00,SystemResetWarning,0831.1,5.00,000.00,030.1,028.5,000.0,038.7,031.7,26.1,0000.0,0002.66,0006.52,0001.83
2023-06-13 03:38:00,SystemResetWarning,0831.1,5.01,000.00,030.1,028.5,000.0,038.7,031.7,25.8,0000.0,0002.62,0006.75,0001.82
2023-06-13 03:39:00,SystemResetWarning,0831.1,5.00,000.00,030.1,028.5,000.0,038.7,031.7,25.7,0000.0,0002.61,0007.40,0001.79
2023-06-13 03:40:00,SystemResetWarning,0831.1,4.99,000.00,030.1,028.5,000.0,038.7,031.7,25.7,0000.0,0002.66,0007.43,0001.76
2023-06-13 03:41:00,SystemResetWarning,0831.1,5.00,000.00,030.1,028.5,000.0,038.7,031.7,25.6,0000.0,0002.68,0007.45,0001.74
2023-06-13 03:42:00,SystemResetWarning,0831.1,5.00,000.00,030.1,028.5,000.0,038.7,031.6,25.6,0000.0,0002.63,0007.42,0001.70
2023-06-13 03:43:00,SystemResetWarning,0831.1,5.00,000.00,030.1,028.5,000.0,038.7,031.7,25.6,0000.0,0002.63,0007.47,0001.69
2023-06-13 03:44:00,SystemResetWarning,0831.1,5.00,000.00,030.2,028.5,000.0,038.7,031.7,25.5,0000.0,0002.58,0006.10,0001.66
2023-06-13 03:45:00,SystemResetWarning,0831.1,4.99,000.00,030.2,028.5,000.0,038.7,031.7,25.5,0000.0,0002.54,0005.88,0001.64
2023-06-13 03:46:00,SystemResetWarning,0831.1,5.00,000.00,030.2,028.5,000.0,038.7,031.7,25.5,0000.0,0002.57,0005.84,0001.62
2023-06-13 03:47:00,SystemResetWarning,0831.1,5.00,000.00,030.2,028.5,000.0,038.7,031.7,25.5,0000.0,0002.57,0005.84,0001.60
2023-06-13 03:48:00,SystemResetWarning,0831.2,5.00,000.00,030.2,028.5,000.0,038.7,031.7,25.4,0000.0,0002.53,0005.74,0001.59
2023-06-13 03:49:00,SystemResetWarning,0831.1,5.00,000.00,030.2,028.5,000.0,038.8,031.6,25.3,0000.0,0002.52,0005.54,0001.56
2023-06-13 03:50:00,SystemResetWarning,0831.1,5.00,000.00,030.2,028.5,000.0,038.8,031.7,25.0,0000.0,0002.52,0005.08,0001.56
2023-06-13 03:51:00,SystemResetWarning,0831.1,5.00,000.00,030.2,028.5,000.0,038.8,031.7,24.8,0000.0,0002.46,0006.80,0001.57
2023-06-13 03:52:00,SystemResetWarning,0831.1,4.99,000.00,030.2,028.5,000.0,038.8,031.7,24.7,0000.0,0002.43,0006.74,0001.57
2023-06-13 03:53:00,SystemResetWarning,0831.1,5.00,000.00,030.2,028.5,000.0,038.8,031.7,24.7,0000.0,0002.47,0007.03,0001.57
2023-06-13 03:54:00,SystemResetWarning,0831.1,5.00,000.00,030.2,028.5,000.0,038.8,031.7,24.5,0000.0,0002.48,0007.07,0001.58
2023-06-13 03:55:00,SystemResetWarning,0831.1,5.00,000.00,030.2,028.5,000.0,038.8,031.7,24.6,0000.0,0002.47,0007.03,0001.58
2023-06-13 03:56:00,SystemResetWarning,0831.2,5.00,000.00,030.2,028.5,000.0,038.8,031.7,24.6,0000.0,0002.44,0006.98,0001.57
2023-06-13 03:57:00,SystemResetWarning,0831.1,5.00,000.00,030.2,028.5,000.0,038.8,031.7,24.6,0000.0,0002.43,0007.05,0001.57
2023-06-13 03:58:00,SystemResetWarning,0831.2,5.01,000.00,030.2,028.5,000.0,038.8,031.7,24.5,0000.0,0002.45,0007.21,0001.57
2023-06-13 03:59:00,SystemResetWarning,0831.2,5.00,000.00,030.2,028.5,000.0,038.8,031.7,24.4,0000.0,0002.48,0007.33,0001.58
